Showing default

HAWK-5B, 52756

Orbit data source: Space-Track

HAWK-5B, 52756 is a payload satellite owned by HawkEye 360 (US) in SSO that was launched on Wed, 25 May 2022 UTC via an FALCON 9 launch vehicle from the Air Force Eastern Test Range (AFETR). Payload-class satellites include a variety of spacecraft equipped with specific instruments for various scientific and technological missions. These include communications satellites like Starlink; space stations such as the ISS; scientific satellites like the Hubble; Earth observation satellites from companies like Planet Labs, Umbra, and HawkEye 360; GPS; miniature CubeSats for education and research; and military/defense satellites.

Loading next visibility...
Identifier
52756, 2022-057AA
Orbit
SSO
Country
Flag of USUS
Related business
Manufacturer
UTIAS-SFL
Mission
Operational Commercial Sigint
Bus & Motor
DEFIANT, Unknown motor
Mass
31 kg wet, 30 kg dry
Launch date (UTC)
2022-05-25 (4 years ago)
Launch vehicle
FALCON 9
Launch site
Air Force Eastern Test Range (AFETR)
Object type
Payload
Rocket body
Debris
Shape & HBR
Box + 2 Pan, 1.0 m
Radar Cross Section
0.348 m², Medium (>0.1 m² and < 1m²)

Expand to show TLE details & history
Last TLE update: 6 hours ago

TLE from 6 hours ago
0 HAWK-5B
1 52756U 22057AA  25349.94521219  .00014482  00000-0  32227-3 0  9995
2 52756  97.6352 132.5065 0006014  18.0742 342.0717 15.43735152198002
Epoch: 2025-12-15T22:41Z
TLE epoch observation values (Epoch: 2025-12-15T22:41:06.333Z)
Latitude
-0.00011°
Longitude
67.39363°
Altitude
434.314 km
Speed
7.653 km/s
True Right ascension
08h 50m 01s
True Declination
0° 00' 00"
Sunlit
Object was in full shadow at epoch
Visualization orbit readout
Latitude
Unknown
Longitude
Unknown
Altitude
Unknown
Speed
Unknown
Apparent Right ascension
Unknown
Apparent Declination
Unknown
Sunlit
N/A
Visualization observer readout
Local Sidereal Time
03:12:45
Azimuth
Unknown
Elevation
Unknown
Doppler factor
Unknown
Orbital elements
Apogee altitude
436.137 km
Perigee altitude
427.946 km
Semi-major axis
6,810.178 km
Eccentricity
0.0006
Inclination
97.6352°
RAAN
132.5065°
Arg. of periapsis
18.0742°
True anomaly
342.05047°
Mean anomaly
342.0717°
Eccentric anomaly
342.06109°
Mean motion
3.86194 °/min
Orbital period
93.22 mins
BSTAR
0.00032227
Loading maneuver chart data...
Computing Atmospheric mass density...

Documentation

Showing up to 5 results
|